Regional Weather Roundup
Issued by NWS Albany, NY

Home | Current Version | Previous Version | Text Only | Print | Product List | Glossary On
Versions: 1 2 3 4 5 6 7 8 9 10 11 12 13 14 15 16 17 18 19 20 21 22 23 24 25 26 27
000
ASUS41 KALY 191710
RWRALY

NEW YORK STATE HOURLY WEATHER ROUNDUP
NATIONAL WEATHER SERVICE ALBANY NY
1200 PM EST MON FEB 19 2018

NOTE: "FAIR" INDICATES FEW OR NO CLOUDS BELOW 12,000 FEET WITH NO
SIGNIFICANT WEATHER AND/OR NO OBSTRUCTIONS TO VISIBILITY.

NYZ032-033-038>043-046>054-057>066-NYZ062>081-082-084-191800-
EAST


CITY           SKY/WX    TMP DP  RH WIND       PRES   REMARKS
ALBANY         PTSUNNY   42  28  57 S20G28    30.37F
GLENS FALLS    FAIR      40  28  62 S14       30.34F WCI  32
POUGHKEEPSIE   CLOUDY    43  31  62 S10G17    30.44F
MONTGOMERY     CLOUDY    41  31  67 S9        30.41F
WHITE PLAINS   PTSUNNY   43  34  70 S7        30.45F
ISLIP          PTSUNNY   49  39  68 S14       30.48F
NEW YORK CITY  CLOUDY    47  36  65 S13       30.47F
CENTRAL PARK   CLOUDY    47  35  63 VRB7      30.48F
$$

NYZ005>009-017-018-044>046-055-056-191800-
CENTRAL


CITY           SKY/WX    TMP DP  RH WIND       PRES   REMARKS
FULTON         LGT RAIN  43  30  60 SE7       30.17F
SYRACUSE       LGT RAIN  44  33  65 SE8       30.19F
ROME           FAIR      42  30  62 SE10      30.27F
ELMIRA         LGT RAIN  41  35  79 S13G21    30.22F
BINGHAMTON     LGT RAIN  36  29  75 S10       30.26S WCI  28
MONTICELLO     CLOUDY    36  29  75 S10       30.38F WCI  28
$$

NYZ026>034-041>043-087-191800-
NORTH


CITY           SKY/WX    TMP DP  RH WIND       PRES   REMARKS
WATERTOWN      CLOUDY    46  31  55 S13G24    30.14F
FORT DRUM      NOT AVBL
OGDENSBURG     FAIR      48  29  47 S8        30.15F
MASSENA        FAIR      47  29  49 SW14G25   30.18F
SARANAC LAKE   FAIR      39  26  59 MISG      30.14F
PLATTSBURGH    FAIR      39  25  57 SE18G26   30.23F WCI  30
$$

NYZ001>004-010>016-019>021-085-191800-
WEST


CITY           SKY/WX    TMP DP  RH WIND       PRES   REMARKS
NIAGARA FALLS  CLOUDY   N/A N/A N/A SW16      30.05F
BUFFALO        LGT RAIN  48  41  76 S15       30.06F
DUNKIRK        CLOUDY    48  42  80 S23G30    30.05F
JAMESTOWN        N/A    N/A N/A N/A MISG        N/A
WELLSVILLE     CLOUDY    39  37  92 S9G26     30.13F WCI  33
ROCHESTER      CLOUDY    50  38  63 SW15G24   30.11F
PENN YAN       LGT RAIN  41  33  73 S16       30.15F
$$

             KEY
       WCI = WIND CHILL INDEX
       VSB = VISIBILITY
       HX  = HEAT INDEX
$$




USA.gov is the U.S. government's official web portal to all federal, state and local government web resources and services.